| time (UTC) | temp F | wind direction | speed MPH | gust MPH | rain 1hr in | rain 24hr in | rain mn in | humidity % | barometer mb |
| 20260504202105 | 76 | 252 | 5.0 | 6.0 | 0.00 | 0.00 | 0.00 | 37 | 1015.5 |
| 20260504201602 | 76 | 268 | 7.0 | 9.0 | 0.00 | 0.00 | 0.00 | 38 | 1015.4 |
| 20260504201100 | 76 | 173 | 3.0 | 3.0 | 0.00 | 0.00 | 0.00 | 40 | 1015.6 |
| 20260504200556 | 76 | 280 | 3.0 | 3.0 | 0.00 | 0.00 | 0.00 | 40 | 1015.6 |
| 20260504200053 | 76 | 195 | 3.0 | 3.0 | 0.00 | 0.00 | 0.00 | 46 | 1015.6 |
| 20260504195549 | 76 | 166 | 5.0 | 7.0 | 0.00 | 0.00 | 0.00 | 40 | 1015.6 |
| 20260504195046 | 76 | 340 | 0.0 | 0.0 | 0.00 | 0.00 | 0.00 | 40 | 1015.8 |
| 20260504194542 | 76 | 248 | 5.0 | 6.0 | 0.00 | 0.00 | 0.00 | 44 | 1015.8 |
| 20260504194038 | 76 | 316 | 1.0 | 2.0 | 0.00 | 0.00 | 0.00 | 41 | 1015.9 |
| 20260504193535 | 75 | 162 | 3.0 | 5.0 | 0.00 | 0.00 | 0.00 | 44 | 1015.9 |
| 20260504193033 | 75 | 320 | 0.0 | 0.0 | 0.00 | 0.00 | 0.00 | 41 | 1016.1 |
| 20260504192531 | 75 | 172 | 5.0 | 6.0 | 0.00 | 0.00 | 0.00 | 41 | 1016.2 |
| 20260504192029 | 75 | 308 | 2.0 | 2.0 | 0.00 | 0.00 | 0.00 | 40 | 1016.2 |
| 20260504191527 | 75 | 359 | 1.0 | 5.0 | 0.00 | 0.00 | 0.00 | 42 | 1016.3 |
| 20260504191023 | 75 | 189 | 1.0 | 3.0 | 0.00 | 0.00 | 0.00 | 45 | 1016.4 |
| 20260504190519 | 75 | 179 | 2.0 | 2.0 | 0.00 | 0.00 | 0.00 | 40 | 1016.5 |
| 20260504190015 | 75 | 12 | 3.0 | 3.0 | 0.00 | 0.00 | 0.00 | 44 | 1016.6 |
| 20260504185512 | 75 | 352 | 4.0 | 5.0 | 0.00 | 0.00 | 0.00 | 46 | 1016.7 |
| 20260504185009 | 74 | 16 | 0.0 | 0.0 | 0.00 | 0.00 | 0.00 | 42 | 1016.7 |
| 20260504184504 | 74 | 207 | 6.0 | 6.0 | 0.00 | 0.00 | 0.00 | 41 | 1016.8 |
| 20260504184000 | 74 | 258 | 1.0 | 1.0 | 0.00 | 0.00 | 0.00 | 42 | 1016.9 |
| 20260504183457 | 73 | 337 | 0.0 | 0.0 | 0.00 | 0.00 | 0.00 | 41 | 1016.9 |
| 20260504182955 | 73 | 340 | 1.0 | 2.0 | 0.00 | 0.00 | 0.00 | 42 | 1017.1 |
| 20260504182452 | 73 | 144 | 11.0 | 13.0 | 0.00 | 0.00 | 0.00 | 41 | 1017.1 |
| 20260504181949 | 73 | 181 | 7.0 | 8.0 | 0.00 | 0.00 | 0.00 | 48 | 1017.1 |
| 20260504181446 | 74 | 156 | 6.0 | 7.0 | 0.00 | 0.00 | 0.00 | 43 | 1017.4 |
| 20260504180944 | 73 | 350 | 3.0 | 3.0 | 0.00 | 0.00 | 0.00 | 45 | 1017.2 |
| 20260504180443 | 73 | 312 | 3.0 | 5.0 | 0.00 | 0.00 | 0.00 | 45 | 1017.2 |
| 20260504175941 | 73 | 275 | 2.0 | 2.0 | 0.00 | 0.00 | 0.00 | 46 | 1017.4 |
| 20260504175438 | 73 | 279 | 2.0 | 2.0 | 0.00 | 0.00 | 0.00 | 45 | 1017.4 |
| 20260504174936 | 73 | 248 | 3.0 | 3.0 | 0.00 | 0.00 | 0.00 | 47 | 1017.4 |
| 20260504174433 | 73 | 239 | 1.0 | 1.0 | 0.00 | 0.00 | 0.00 | 49 | 1017.3 |
| 20260504173930 | 73 | 146 | 2.0 | 2.0 | 0.00 | 0.00 | 0.00 | 46 | 1017.6 |
| 20260504173426 | 72 | 349 | 3.0 | 3.0 | 0.00 | 0.00 | 0.00 | 47 | 1017.6 |
| 20260504172924 | 72 | 208 | 3.0 | 3.0 | 0.00 | 0.00 | 0.00 | 46 | 1017.4 |
| 20260504172420 | 72 | 220 | 2.0 | 2.0 | 0.00 | 0.00 | 0.00 | 46 | 1017.7 |
| 20260504171916 | 72 | 312 | 5.0 | 6.0 | 0.00 | 0.00 | 0.00 | 47 | 1017.6 |
| 20260504171414 | 72 | 307 | 2.0 | 2.0 | 0.00 | 0.00 | 0.00 | 48 | 1017.9 |
| 20260504170910 | 72 | 177 | 4.0 | 5.0 | 0.00 | 0.00 | 0.00 | 48 | 1017.8 |
| 20260504170407 | 71 | 16 | 3.0 | 3.0 | 0.00 | 0.00 | 0.00 | 48 | 1017.8 |
| 20260504160326 | 69 | 277 | 2.0 | 2.0 | 0.00 | 0.00 | 0.00 | 53 | 1018.7 |
| 20260504150750 | 67 | 285 | 2.0 | 2.0 | 0.00 | 0.00 | 0.00 | 51 | 1019.0 |
| 20260504150247 | 68 | 289 | 0.0 | 0.0 | 0.00 | 0.00 | 0.00 | 51 | 1019.1 |
| 20260504141217 | 65 | 352 | 0.0 | 0.0 | 0.00 | 0.00 | 0.00 | 62 | 1019.3 |
| 20260504140714 | 65 | 350 | 0.0 | 0.0 | 0.00 | 0.00 | 0.00 | 65 | 1019.3 |
| 20260504140209 | 64 | 336 | 0.0 | 0.0 | 0.00 | 0.00 | 0.00 | 66 | 1019.2 |
| 20260504130637 | 56 | 342 | 0.0 | 0.0 | 0.00 | 0.00 | 0.00 | 84 | 1019.1 |
| 20260504130134 | 55 | 343 | 0.0 | 0.0 | 0.00 | 0.00 | 0.00 | 88 | 1019.3 |
| 20260504110525 | 46 | 343 | 0.0 | 0.0 | 0.00 | 0.00 | 0.00 | 99 | 1018.4 |
| 20260504100442 | 46 | 343 | 0.0 | 0.0 | 0.00 | 0.00 | 0.00 | 98 | 1018.4 |
| 20260504081840 | 47 | 344 | 0.0 | 0.0 | 0.00 | 0.00 | 0.00 | 95 | 1018.5 |
| 20260504081337 | 47 | 343 | 0.0 | 0.0 | 0.00 | 0.00 | 0.00 | 94 | 1018.4 |
| 20260504080832 | 47 | 343 | 0.0 | 0.0 | 0.00 | 0.00 | 0.00 | 94 | 1018.3 |
| 20260504080330 | 47 | 343 | 0.0 | 0.0 | 0.00 | 0.00 | 0.00 | 94 | 1018.5 |
| 20260504070257 | 50 | 342 | 0.0 | 0.0 | 0.00 | 0.00 | 0.00 | 92 | 1018.7 |
| 20260504060218 | 52 | 340 | 0.0 | 0.0 | 0.00 | 0.00 | 0.00 | 89 | 1019.1 |
| 20260504050646 | 53 | 338 | 0.0 | 0.0 | 0.00 | 0.00 | 0.00 | 88 | 1019.3 |
| 20260504050142 | 53 | 339 | 0.0 | 1.0 | 0.00 | 0.00 | 0.00 | 88 | 1019.3 |
| 20260504045640 | 53 | 339 | 1.0 | 1.0 | 0.00 | 0.00 | 0.00 | 87 | 1019.2 |
| 20260504045140 | 53 | 341 | 0.0 | 1.0 | 0.00 | 0.00 | 0.00 | 87 | 1019.3 |
| 20260504044638 | 53 | 339 | 1.0 | 1.0 | 0.00 | 0.00 | 0.00 | 87 | 1019.4 |
| 20260504044134 | 53 | 339 | 1.0 | 1.0 | 0.00 | 0.00 | 0.00 | 87 | 1019.3 |
| 20260504043632 | 53 | 339 | 1.0 | 1.0 | 0.00 | 0.00 | 0.00 | 87 | 1019.3 |
| 20260504043129 | 53 | 339 | 1.0 | 1.0 | 0.00 | 0.00 | 0.00 | 88 | 1019.5 |
| 20260504042626 | 53 | 339 | 1.0 | 1.0 | 0.00 | 0.00 | 0.00 | 88 | 1019.5 |
| 20260504042123 | 53 | 339 | 1.0 | 1.0 | 0.00 | 0.00 | 0.00 | 86 | 1019.6 |
| 20260504041618 | 53 | 340 | 0.0 | 0.0 | 0.00 | 0.00 | 0.00 | 88 | 1019.4 |
| 20260504041115 | 53 | 340 | 0.0 | 1.0 | 0.00 | 0.00 | 0.00 | 89 | 1019.4 |
| 20260504040612 | 53 | 338 | 1.0 | 1.0 | 0.00 | 0.00 | 0.00 | 88 | 1019.6 |
| 20260504040109 | 53 | 339 | 1.0 | 1.0 | 0.00 | 0.00 | 0.00 | 87 | 1019.4 |
| 20260504035606 | 53 | 338 | 1.0 | 1.0 | 0.00 | 0.00 | 0.00 | 87 | 1019.4 |
| 20260504035102 | 53 | 339 | 1.0 | 1.0 | 0.00 | 0.00 | 0.00 | 88 | 1019.4 |
| 20260504034600 | 54 | 339 | 1.0 | 1.0 | 0.00 | 0.00 | 0.00 | 87 | 1019.4 |
| 20260504034056 | 54 | 339 | 1.0 | 1.0 | 0.00 | 0.00 | 0.00 | 85 | 1019.3 |
| 20260504033554 | 54 | 340 | 1.0 | 1.0 | 0.00 | 0.00 | 0.00 | 86 | 1019.4 |
| 20260504033051 | 54 | 341 | 1.0 | 1.0 | 0.00 | 0.00 | 0.00 | 83 | 1019.4 |
| 20260504032548 | 54 | 341 | 1.0 | 1.0 | 0.00 | 0.00 | 0.00 | 83 | 1019.3 |
| 20260504032045 | 55 | 342 | 1.0 | 1.0 | 0.00 | 0.00 | 0.00 | 83 | 1019.2 |
| 20260504031542 | 55 | 341 | 1.0 | 1.0 | 0.00 | 0.00 | 0.00 | 84 | 1019.2 |
| 20260504031038 | 55 | 340 | 1.0 | 1.0 | 0.00 | 0.00 | 0.00 | 83 | 1019.2 |
| 20260504030536 | 55 | 340 | 1.0 | 2.0 | 0.00 | 0.00 | 0.00 | 84 | 1019.2 |
| 20260504030032 | 55 | 343 | 1.0 | 1.0 | 0.00 | 0.00 | 0.00 | 84 | 1019.3 |
| 20260504025529 | 55 | 341 | 1.0 | 1.0 | 0.00 | 0.00 | 0.00 | 85 | 1019.2 |
| 20260504025025 | 55 | 342 | 0.0 | 0.0 | 0.00 | 0.00 | 0.00 | 84 | 1019.1 |
| 20260504024523 | 55 | 346 | 1.0 | 1.0 | 0.00 | 0.00 | 0.00 | 86 | 1019.2 |
| 20260504024020 | 56 | 333 | 2.0 | 2.0 | 0.00 | 0.00 | 0.00 | 86 | 1019.1 |
| 20260504023516 | 55 | 338 | 0.0 | 1.0 | 0.00 | 0.00 | 0.00 | 82 | 1019.0 |
| 20260504023012 | 56 | 339 | 1.0 | 1.0 | 0.00 | 0.00 | 0.00 | 84 | 1019.3 |
| 20260504022508 | 55 | 338 | 1.0 | 1.0 | 0.00 | 0.00 | 0.00 | 82 | 1019.0 |
| 20260504022005 | 56 | 339 | 1.0 | 1.0 | 0.00 | 0.00 | 0.00 | 82 | 1019.1 |
| 20260504021502 | 56 | 339 | 1.0 | 1.0 | 0.00 | 0.00 | 0.00 | 83 | 1018.8 |
| 20260504020959 | 56 | 339 | 1.0 | 1.0 | 0.00 | 0.00 | 0.00 | 83 | 1018.9 |
| 20260504020456 | 57 | 339 | 0.0 | 1.0 | 0.00 | 0.00 | 0.00 | 82 | 1018.6 |
| 20260504015953 | 57 | 339 | 1.0 | 1.0 | 0.00 | 0.00 | 0.00 | 81 | 1018.9 |
| 20260504015449 | 57 | 340 | 1.0 | 1.0 | 0.00 | 0.00 | 0.00 | 80 | 1018.6 |
| 20260504014944 | 57 | 345 | 1.0 | 1.0 | 0.00 | 0.00 | 0.00 | 79 | 1018.8 |
| 20260504014441 | 57 | 346 | 1.0 | 1.0 | 0.00 | 0.00 | 0.00 | 80 | 1018.4 |
| 20260504013938 | 57 | 344 | 1.0 | 1.0 | 0.00 | 0.00 | 0.00 | 79 | 1018.5 |
| 20260504013437 | 57 | 353 | 1.0 | 1.0 | 0.00 | 0.00 | 0.00 | 78 | 1018.3 |
| 20260504012932 | 58 | 351 | 1.0 | 1.0 | 0.00 | 0.00 | 0.00 | 79 | 1018.1 |
| 20260504012430 | 58 | 349 | 1.0 | 1.0 | 0.00 | 0.00 | 0.00 | 79 | 1018.2 |
| 20260504011927 | 58 | 347 | 1.0 | 1.0 | 0.00 | 0.00 | 0.00 | 78 | 1018.0 |
| 20260504011424 | 58 | 351 | 1.0 | 1.0 | 0.00 | 0.00 | 0.00 | 77 | 1017.9 |
| 20260504010920 | 59 | 345 | 1.0 | 1.0 | 0.00 | 0.00 | 0.00 | 76 | 1018.0 |
| 20260504010416 | 59 | 356 | 1.0 | 1.0 | 0.00 | 0.00 | 0.00 | 73 | 1018.0 |
| 20260504005913 | 60 | 356 | 1.0 | 1.0 | 0.00 | 0.00 | 0.00 | 75 | 1017.9 |
| 20260504005409 | 60 | 356 | 1.0 | 1.0 | 0.00 | 0.00 | 0.00 | 75 | 1017.9 |
| 20260504004907 | 60 | 356 | 1.0 | 1.0 | 0.00 | 0.00 | 0.00 | 71 | 1017.9 |
| 20260504004405 | 61 | 356 | 0.0 | 1.0 | 0.00 | 0.00 | 0.00 | 73 | 1017.7 |
| 20260504003901 | 62 | 356 | 0.0 | 0.0 | 0.00 | 0.00 | 0.00 | 73 | 1017.8 |
| 20260504003358 | 62 | 356 | 0.0 | 0.0 | 0.00 | 0.00 | 0.00 | 72 | 1017.8 |
| 20260504002854 | 62 | 356 | 0.0 | 1.0 | 0.00 | 0.00 | 0.00 | 70 | 1017.7 |
| 20260504002351 | 63 | 356 | 1.0 | 1.0 | 0.00 | 0.00 | 0.00 | 66 | 1017.6 |
| 20260504001849 | 64 | 355 | 1.0 | 1.0 | 0.00 | 0.00 | 0.00 | 66 | 1017.6 |
| 20260504001346 | 65 | 355 | 1.0 | 1.0 | 0.00 | 0.00 | 0.00 | 61 | 1017.7 |
| 20260504000843 | 65 | 355 | 1.0 | 1.0 | 0.00 | 0.00 | 0.00 | 62 | 1017.3 |
| 20260504000340 | 66 | 353 | 0.0 | 0.0 | 0.00 | 0.00 | 0.00 | 59 | 1017.7 |
| 20260503235837 | 67 | 353 | 0.0 | 0.0 | 0.00 | 0.00 | 0.00 | 57 | 1017.6 |
| 20260503235335 | 69 | 353 | 1.0 | 1.0 | 0.00 | 0.00 | 0.00 | 56 | 1017.6 |
| 20260503234832 | 69 | 339 | 0.0 | 1.0 | 0.00 | 0.00 | 0.00 | 45 | 1017.7 |
| 20260503234330 | 70 | 331 | 3.0 | 3.0 | 0.00 | 0.00 | 0.00 | 43 | 1017.6 |
| 20260503233827 | 71 | 293 | 3.0 | 3.0 | 0.00 | 0.00 | 0.00 | 42 | 1017.7 |
| 20260503233323 | 71 | 292 | 2.0 | 2.0 | 0.00 | 0.00 | 0.00 | 45 | 1017.8 |
| 20260503232820 | 72 | 333 | 1.0 | 1.0 | 0.00 | 0.00 | 0.00 | 42 | 1017.7 |
| 20260503232317 | 72 | 298 | 2.0 | 2.0 | 0.00 | 0.00 | 0.00 | 39 | 1017.6 |
| 20260503231815 | 72 | 344 | 2.0 | 2.0 | 0.00 | 0.00 | 0.00 | 41 | 1017.5 |
| 20260503231312 | 72 | 323 | 2.0 | 2.0 | 0.00 | 0.00 | 0.00 | 40 | 1017.6 |
| 20260503230808 | 73 | 302 | 1.0 | 2.0 | 0.00 | 0.00 | 0.00 | 39 | 1017.9 |
| 20260503230305 | 72 | 307 | 1.0 | 2.0 | 0.00 | 0.00 | 0.00 | 38 | 1018.0 |
| 20260503225803 | 72 | 220 | 3.0 | 3.0 | 0.00 | 0.00 | 0.00 | 39 | 1017.5 |
| 20260503225258 | 72 | 339 | 3.0 | 3.0 | 0.00 | 0.00 | 0.00 | 44 | 1017.7 |
| 20260503224755 | 73 | 344 | 0.0 | 0.0 | 0.00 | 0.00 | 0.00 | 43 | 1017.5 |
| 20260503224252 | 73 | 256 | 3.0 | 3.0 | 0.00 | 0.00 | 0.00 | 41 | 1017.6 |
| 20260503223750 | 72 | 319 | 0.0 | 0.0 | 0.00 | 0.00 | 0.00 | 39 | 1017.6 |
| 20260503223247 | 71 | 335 | 4.0 | 5.0 | 0.00 | 0.00 | 0.00 | 43 | 1017.6 |
| 20260503222743 | 71 | 289 | 2.0 | 2.0 | 0.00 | 0.00 | 0.00 | 40 | 1017.7 |
| 20260503222241 | 71 | 320 | 6.0 | 7.0 | 0.00 | 0.00 | 0.00 | 39 | 1017.4 |
| 20260503221739 | 71 | 26 | 3.0 | 3.0 | 0.00 | 0.00 | 0.00 | 38 | 1017.5 |
| 20260503221237 | 71 | 330 | 6.0 | 8.0 | 0.00 | 0.00 | 0.00 | 44 | 1017.8 |
| 20260503220733 | 71 | 292 | 5.0 | 6.0 | 0.00 | 0.00 | 0.00 | 38 | 1017.8 |
| 20260503220230 | 71 | 258 | 4.0 | 5.0 | 0.00 | 0.00 | 0.00 | 38 | 1017.6 |
| 20260503215727 | 71 | 298 | 5.0 | 6.0 | 0.00 | 0.00 | 0.00 | 38 | 1017.8 |
| 20260503215224 | 71 | 331 | 6.0 | 8.0 | 0.00 | 0.00 | 0.00 | 39 | 1017.8 |
| 20260503214722 | 71 | 335 | 7.0 | 8.0 | 0.00 | 0.00 | 0.00 | 40 | 1017.9 |
| 20260503214218 | 72 | 349 | 5.0 | 6.0 | 0.00 | 0.00 | 0.00 | 38 | 1017.7 |
| 20260503213717 | 72 | 160 | 5.0 | 7.0 | 0.00 | 0.00 | 0.00 | 42 | 1017.9 |
| 20260503213213 | 71 | 171 | 0.0 | 1.0 | 0.00 | 0.00 | 0.00 | 40 | 1017.9 |
| 20260503212710 | 71 | 20 | 6.0 | 7.0 | 0.00 | 0.00 | 0.00 | 40 | 1017.9 |
| 20260503212208 | 71 | 343 | 8.0 | 9.0 | 0.00 | 0.00 | 0.00 | 40 | 1017.9 |
| 20260503211706 | 72 | 324 | 3.0 | 6.0 | 0.00 | 0.00 | 0.00 | 41 | 1017.9 |
| 20260503211201 | 72 | 313 | 2.0 | 2.0 | 0.00 | 0.00 | 0.00 | 38 | 1018.1 |
| 20260503210657 | 71 | 301 | 2.0 | 2.0 | 0.00 | 0.00 | 0.00 | 38 | 1018.1 |
| 20260503210154 | 72 | 310 | 4.0 | 5.0 | 0.00 | 0.00 | 0.00 | 39 | 1018.4 |
| 20260503205649 | 71 | 359 | 3.0 | 3.0 | 0.00 | 0.00 | 0.00 | 38 | 1018.1 |
| 20260503205146 | 71 | 299 | 5.0 | 6.0 | 0.00 | 0.00 | 0.00 | 42 | 1018.3 |
| 20260503204643 | 71 | 229 | 5.0 | 6.0 | 0.00 | 0.00 | 0.00 | 40 | 1018.2 |
| 20260503204140 | 70 | 315 | 2.0 | 3.0 | 0.00 | 0.00 | 0.00 | 40 | 1018.4 |
| 20260503203637 | 70 | 345 | 1.0 | 2.0 | 0.00 | 0.00 | 0.00 | 43 | 1018.5 |
| 20260503203135 | 71 | 343 | 10.0 | 14.0 | 0.00 | 0.00 | 0.00 | 40 | 1018.3 |
| 20260503202632 | 71 | 288 | 8.0 | 10.0 | 0.00 | 0.00 | 0.00 | 38 | 1018.6 |